START_TIME,STEP,MOV.,A39,t_acc.,A33,t_acc.,P32,t_acc.,P31,t_acc.
1979-07-12 18:00:23.070 ,0,0,39.,0.8,4.,0.8,3.,0.8,0.,0.8
1979-07-12 18:00:23.870 ,0,0,20.,0.8,3.,0.8,4.,0.8,0.,0.8
1979-07-12 18:00:24.670 ,0,0,33.,0.8,1.,0.8,3.,0.8,0.,0.8
1979-07-12 18:00:25.470 ,0,0,38.,0.8,3.,0.8,3.,0.8,0.,0.8
1979-07-12 18:00:26.270 ,0,0,24.,0.8,0.,0.8,4.,0.8,0.,0.8
1979-07-12 18:00:27.070 ,0,0,23.,0.8,3.,0.8,2.,0.8,0.,0.8
1979-07-12 18:00:27.870 ,0,0,25.,0.8,0.,0.8,4.,0.8,0.,0.8
1979-07-12 18:00:28.670 ,0,0,29.,0.8,3.,0.8,5.,0.8,0.,0.8
1979-07-12 18:00:29.470 ,0,0,24.,0.8,1.,0.8,1.,0.8,0.,0.8
1979-07-12 18:00:30.270 ,0,0,19.,0.8,4.,0.8,0.,0.8,0.,0.8
1979-07-12 18:00:31.070 ,0,0,27.,0.8,2.,0.8,3.,0.8,0.,0.8
1979-07-12 18:00:31.870 ,0,0,12.,0.8,1.,0.8,5.,0.8,0.,0.8
1979-07-12 18:00:32.670 ,0,0,23.,0.8,0.,0.8,2.,0.8,0.,0.8
1979-07-12 18:00:33.470 ,0,0,24.,0.8,5.,0.8,1.,0.8,0.,0.8
1979-07-12 18:00:34.270 ,0,0,17.,0.8,1.,0.8,2.,0.8,0.,0.8
1979-07-12 18:00:35.070 ,0,0,16.,0.8,1.,0.8,2.,0.8,0.,0.8
1979-07-12 18:00:35.870 ,0,0,19.,0.8,4.,0.8,1.,0.8,0.,0.8
1979-07-12 18:00:36.670 ,0,0,30.,0.8,1.,0.8,3.,0.8,0.,0.8
1979-07-12 18:00:37.470 ,0,0,24.,0.8,1.,0.8,0.,0.8,0.,0.8
1979-07-12 18:00:38.270 ,0,0,28.,0.8,0.,0.8,4.,0.8,0.,0.8
1979-07-12 18:00:39.070 ,0,0,14.,0.8,4.,0.8,1.,0.8,0.,0.8
1979-07-12 18:00:39.870 ,0,0,21.,0.8,2.,0.8,2.,0.8,0.,0.8
1979-07-12 18:00:40.670 ,0,0,23.,0.8,1.,0.8,1.,0.8,0.,0.8
1979-07-12 18:00:41.470 ,0,0,21.,0.8,0.,0.8,0.,0.8,0.,0.8
1979-07-12 18:00:42.270 ,0,0,17.,0.8,1.,0.8,3.,0.8,0.,0.8
1979-07-12 18:00:43.070 ,0,0,14.,0.8,0.,0.8,3.,0.8,0.,0.8
1979-07-12 18:00:43.870 ,0,0,15.,0.8,1.,0.8,3.,0.8,0.,0.8
1979-07-12 18:00:44.670 ,0,0,18.,0.8,1.,0.8,7.,0.8,0.,0.8
1979-07-12 18:00:45.470 ,0,0,26.,0.8,0.,0.8,2.,0.8,0.,0.8
1979-07-12 18:00:46.270 ,0,0,19.,0.8,2.,0.8,1.,0.8,0.,0.8
1979-07-12 18:00:47.070 ,4,0,20.,0.8,4.,0.8,2.,0.8,0.,0.8
1979-07-12 18:00:47.870 ,4,0,26.,0.8,2.,0.8,2.,0.8,0.,0.8
1979-07-12 18:00:48.670 ,4,0,29.,0.8,2.,0.8,1.,0.8,0.,0.8
1979-07-12 18:00:49.470 ,4,0,28.,0.8,2.,0.8,3.,0.8,0.,0.8
1979-07-12 18:00:50.270 ,4,0,26.,0.8,3.,0.8,1.,0.8,0.,0.8
1979-07-12 18:00:51.070 ,4,0,20.,0.8,1.,0.8,1.,0.8,0.,0.8
1979-07-12 18:00:51.870 ,4,0,16.,0.8,3.,0.8,2.,0.8,0.,0.8
1979-07-12 18:00:52.670 ,4,0,23.,0.8,2.,0.8,1.,0.8,0.,0.8
1979-07-12 18:00:53.470 ,4,0,21.,0.8,0.,0.8,3.,0.8,0.,0.8
1979-07-12 18:00:54.270 ,4,0,25.,0.8,2.,0.8,2.,0.8,0.,0.8
1979-07-12 18:00:55.070 ,4,0,24.,0.8,2.,0.8,1.,0.8,0.,0.8
1979-07-12 18:00:55.870 ,4,0,32.,0.8,3.,0.8,2.,0.8,0.,0.8
1979-07-12 18:00:56.670 ,4,0,29.,0.8,1.,0.8,4.,0.8,0.,0.8
1979-07-12 18:00:57.470 ,4,0,29.,0.8,3.,0.8,3.,0.8,0.,0.8
1979-07-12 18:00:58.270 ,4,0,23.,0.8,3.,0.8,3.,0.8,0.,0.8
1979-07-12 18:00:59.070 ,4,0,25.,0.8,2.,0.8,3.,0.8,0.,0.8
1979-07-12 18:00:59.870 ,4,0,43.,0.8,0.,0.8,5.,0.8,0.,0.8
1979-07-12 18:01:00.670 ,4,0,45.,0.8,2.,0.8,2.,0.8,0.,0.8
1979-07-12 18:01:01.470 ,4,0,44.,0.8,3.,0.8,7.,0.8,0.,0.8
1979-07-12 18:01:02.270 ,4,0,34.,0.8,1.,0.8,2.,0.8,0.,0.8
1979-07-12 18:01:03.070 ,4,0,42.,0.8,1.,0.8,3.,0.8,0.,0.8
1979-07-12 18:01:03.870 ,4,0,43.,0.8,2.,0.8,3.,0.8,0.,0.8
1979-07-12 18:01:04.670 ,4,0,37.,0.8,0.,0.8,2.,0.8,0.,0.8
1979-07-12 18:01:05.470 ,4,0,60.,0.8,4.,0.8,6.,0.8,0.,0.8
1979-07-12 18:01:06.270 ,4,0,55.,0.8,1.,0.8,5.,0.8,0.,0.8
1979-07-12 18:01:07.070 ,4,0,53.,0.8,3.,0.8,2.,0.8,0.,0.8
1979-07-12 18:01:07.870 ,4,0,39.,0.8,0.,0.8,4.,0.8,0.,0.8
1979-07-12 18:01:08.670 ,4,0,55.,0.8,0.,0.8,4.,0.8,0.,0.8
1979-07-12 18:01:09.470 ,4,0,60.,0.8,1.,0.8,7.,0.8,0.,0.8
1979-07-12 18:01:10.270 ,4,0,55.,0.8,0.,0.8,6.,0.8,0.,0.8
1979-07-12 18:01:11.070 ,7,0,59.,0.8,2.,0.8,7.,0.8,0.,0.8
1979-07-12 18:01:11.870 ,7,0,51.,0.8,1.,0.8,7.,0.8,0.,0.8
1979-07-12 18:01:12.670 ,7,0,53.,0.8,4.,0.8,2.,0.8,0.,0.8
1979-07-12 18:01:13.470 ,7,0,54.,0.8,3.,0.8,1.,0.8,0.,0.8
1979-07-12 18:01:14.270 ,7,0,53.,0.8,3.,0.8,2.,0.8,0.,0.8
1979-07-12 18:01:15.070 ,7,0,49.,0.8,2.,0.8,4.,0.8,0.,0.8
1979-07-12 18:01:15.870 ,7,0,53.,0.8,4.,0.8,3.,0.8,0.,0.8
1979-07-12 18:01:16.670 ,7,0,61.,0.8,3.,0.8,4.,0.8,0.,0.8
1979-07-12 18:01:17.470 ,7,0,41.,0.8,1.,0.8,4.,0.8,0.,0.8
1979-07-12 18:01:18.270 ,7,0,29.,0.8,4.,0.8,3.,0.8,0.,0.8
1979-07-12 18:01:19.070 ,7,0,41.,0.8,3.,0.8,6.,0.8,0.,0.8
1979-07-12 18:01:19.870 ,7,0,43.,0.8,0.,0.8,3.,0.8,0.,0.8
1979-07-12 18:01:20.670 ,7,0,35.,0.8,1.,0.8,1.,0.8,0.,0.8
1979-07-12 18:01:21.470 ,7,0,41.,0.8,3.,0.8,3.,0.8,0.,0.8
1979-07-12 18:01:22.270 ,7,0,42.,0.8,4.,0.8,2.,0.8,0.,0.8
1979-07-12 18:01:23.070 ,7,0,38.,0.8,1.,0.8,3.,0.8,0.,0.8
1979-07-12 18:01:23.870 ,7,0,1.,0.8,0.,0.8,0.,0.8,0.,0.8
1979-07-12 18:01:24.670 ,7,0,0.,0.8,0.,0.8,0.,0.8,0.,0.8
1979-07-12 18:01:25.470 ,7,0,0.,0.8,0.,0.8,0.,0.8,0.,0.8
1979-07-12 18:01:26.270 ,7,0,0.,0.8,0.,0.8,0.,0.8,0.,0.8
1979-07-12 18:01:27.070 ,7,0,0.,0.8,0.,0.8,0.,0.8,0.,0.8
1979-07-12 18:01:27.870 ,7,0,0.,0.8,0.,0.8,0.,0.8,0.,0.8
1979-07-12 18:01:28.670 ,7,0,0.,0.8,0.,0.8,0.,0.8,0.,0.8
1979-07-12 18:01:29.470 ,7,0,0.,0.8,0.,0.8,0.,0.8,0.,0.8
1979-07-12 18:01:30.270 ,7,0,0.,0.8,0.,0.8,0.,0.8,0.,0.8
1979-07-12 18:01:31.070 ,7,0,0.,0.8,0.,0.8,0.,0.8,0.,0.8
1979-07-12 18:01:31.870 ,7,0,0.,0.8,0.,0.8,0.,0.8,0.,0.8
1979-07-12 18:01:32.670 ,7,0,0.,0.8,0.,0.8,0.,0.8,0.,0.8
1979-07-12 18:01:33.470 ,7,0,0.,0.8,0.,0.8,0.,0.8,0.,0.8
1979-07-12 18:01:34.270 ,7,0,0.,0.8,0.,0.8,0.,0.8,0.,0.8
1979-07-12 18:01:35.070 ,3,0,0.,0.8,0.,0.8,0.,0.8,0.,0.8
1979-07-12 18:01:35.870 ,3,0,24.,0.8,2.,0.8,3.,0.8,0.,0.8
1979-07-12 18:01:36.670 ,3,0,34.,0.8,3.,0.8,0.,0.8,0.,0.8
1979-07-12 18:01:37.470 ,3,0,36.,0.8,0.,0.8,1.,0.8,0.,0.8
1979-07-12 18:01:38.270 ,3,0,47.,0.8,1.,0.8,5.,0.8,0.,0.8
1979-07-12 18:01:39.070 ,3,0,33.,0.8,4.,0.8,0.,0.8,0.,0.8
1979-07-12 18:01:39.870 ,3,0,45.,0.8,4.,0.8,6.,0.8,0.,0.8
1979-07-12 18:01:40.670 ,3,0,31.,0.8,4.,0.8,2.,0.8,0.,0.8
1979-07-12 18:01:41.470 ,3,0,50.,0.8,3.,0.8,7.,0.8,0.,0.8
1979-07-12 18:01:42.270 ,3,0,52.,0.8,7.,0.8,4.,0.8,0.,0.8
1979-07-12 18:01:43.070 ,3,0,62.,0.8,2.,0.8,2.,0.8,0.,0.8
1979-07-12 18:01:43.870 ,3,0,57.,0.8,4.,0.8,1.,0.8,0.,0.8
1979-07-12 18:01:44.670 ,3,0,64.,0.8,7.,0.8,9.,0.8,0.,0.8
1979-07-12 18:01:45.470 ,3,0,54.,0.8,2.,0.8,2.,0.8,0.,0.8
1979-07-12 18:01:46.270 ,3,0,57.,0.8,5.,0.8,3.,0.8,0.,0.8
1979-07-12 18:01:47.070 ,3,0,47.,0.8,3.,0.8,2.,0.8,0.,0.8
1979-07-12 18:01:47.870 ,3,0,48.,0.8,3.,0.8,3.,0.8,0.,0.8
1979-07-12 18:01:48.670 ,3,0,48.,0.8,5.,0.8,5.,0.8,0.,0.8
1979-07-12 18:01:49.470 ,3,0,54.,0.8,4.,0.8,5.,0.8,0.,0.8
1979-07-12 18:01:50.270 ,3,0,54.,0.8,1.,0.8,2.,0.8,0.,0.8
1979-07-12 18:01:51.070 ,3,0,66.,0.8,3.,0.8,5.,0.8,0.,0.8
1979-07-12 18:01:51.870 ,3,0,62.,0.8,3.,0.8,7.,0.8,0.,0.8
1979-07-12 18:01:52.670 ,3,0,56.,0.8,3.,0.8,4.,0.8,0.,0.8
1979-07-12 18:01:53.470 ,3,0,53.,0.8,1.,0.8,4.,0.8,0.,0.8
1979-07-12 18:01:54.270 ,3,0,39.,0.8,3.,0.8,4.,0.8,0.,0.8
1979-07-12 18:01:55.070 ,3,0,35.,0.8,4.,0.8,4.,0.8,0.,0.8
1979-07-12 18:01:55.870 ,3,0,49.,0.8,1.,0.8,5.,0.8,0.,0.8
1979-07-12 18:01:56.670 ,3,0,46.,0.8,3.,0.8,5.,0.8,0.,0.8
1979-07-12 18:01:57.470 ,3,0,39.,0.8,2.,0.8,5.,0.8,0.,0.8
1979-07-12 18:01:58.270 ,3,0,40.,0.8,5.,0.8,4.,0.8,0.,0.8
1979-07-12 18:01:59.070 ,0,0,42.,0.8,2.,0.8,1.,0.8,0.,0.8
1979-07-12 18:01:59.870 ,0,0,22.,0.8,2.,0.8,1.,0.8,0.,0.8
1979-07-12 18:02:00.670 ,0,0,31.,0.8,2.,0.8,2.,0.8,0.,0.8
1979-07-12 18:02:01.470 ,0,0,26.,0.8,3.,0.8,3.,0.8,0.,0.8
1979-07-12 18:02:02.270 ,0,0,24.,0.8,3.,0.8,2.,0.8,0.,0.8
1979-07-12 18:02:03.070 ,0,0,25.,0.8,1.,0.8,5.,0.8,0.,0.8
1979-07-12 18:02:03.870 ,0,0,26.,0.8,1.,0.8,3.,0.8,0.,0.8
1979-07-12 18:02:04.670 ,0,0,21.,0.8,0.,0.8,4.,0.8,0.,0.8
1979-07-12 18:02:05.470 ,0,0,26.,0.8,3.,0.8,4.,0.8,0.,0.8
1979-07-12 18:02:06.270 ,0,0,19.,0.8,0.,0.8,3.,0.8,0.,0.8
1979-07-12 18:02:07.070 ,0,0,26.,0.8,3.,0.8,4.,0.8,0.,0.8
1979-07-12 18:02:07.870 ,0,0,19.,0.8,2.,0.8,2.,0.8,0.,0.8
1979-07-12 18:02:08.670 ,0,0,20.,0.8,2.,0.8,7.,0.8,0.,0.8
1979-07-12 18:02:09.470 ,0,0,19.,0.8,3.,0.8,0.,0.8,0.,0.8
1979-07-12 18:02:10.270 ,0,0,25.,0.8,2.,0.8,0.,0.8,0.,0.8
1979-07-12 18:02:11.070 ,0,0,30.,0.8,2.,0.8,4.,0.8,0.,0.8
1979-07-12 18:02:11.870 ,0,0,18.,0.8,1.,0.8,8.,0.8,0.,0.8
1979-07-12 18:02:12.670 ,0,0,19.,0.8,0.,0.8,4.,0.8,0.,0.8
1979-07-12 18:02:13.470 ,0,0,15.,0.8,2.,0.8,1.,0.8,0.,0.8
1979-07-12 18:02:14.270 ,0,0,28.,0.8,2.,0.8,3.,0.8,0.,0.8
1979-07-12 18:02:15.070 ,0,0,11.,0.8,0.,0.8,3.,0.8,0.,0.8
1979-07-12 18:02:15.870 ,0,0,23.,0.8,1.,0.8,1.,0.8,0.,0.8
1979-07-12 18:02:16.670 ,0,0,25.,0.8,4.,0.8,3.,0.8,0.,0.8
1979-07-12 18:02:17.470 ,0,0,23.,0.8,2.,0.8,2.,0.8,0.,0.8
1979-07-12 18:02:18.270 ,0,0,19.,0.8,2.,0.8,3.,0.8,0.,0.8
1979-07-12 18:02:19.070 ,0,0,13.,0.8,1.,0.8,3.,0.8,0.,0.8
1979-07-12 18:02:19.870 ,0,0,22.,0.8,2.,0.8,1.,0.8,0.,0.8
1979-07-12 18:02:20.670 ,0,0,15.,0.8,2.,0.8,1.,0.8,0.,0.8
1979-07-12 18:02:21.470 ,0,0,20.,0.8,1.,0.8,1.,0.8,0.,0.8
1979-07-12 18:02:22.270 ,0,0,14.,0.8,2.,0.8,2.,0.8,0.,0.8
1979-07-12 18:02:23.070 ,4,0,20.,0.8,4.,0.8,4.,0.8,0.,0.8
1979-07-12 18:02:23.870 ,4,0,23.,0.8,1.,0.8,3.,0.8,0.,0.8
1979-07-12 18:02:24.670 ,4,0,15.,0.8,3.,0.8,3.,0.8,0.,0.8
1979-07-12 18:02:25.470 ,4,0,23.,0.8,1.,0.8,1.,0.8,0.,0.8
1979-07-12 18:02:26.270 ,4,0,25.,0.8,1.,0.8,1.,0.8,0.,0.8
1979-07-12 18:02:27.070 ,4,0,14.,0.8,1.,0.8,2.,0.8,0.,0.8
1979-07-12 18:02:27.870 ,4,0,18.,0.8,2.,0.8,0.,0.8,0.,0.8
1979-07-12 18:02:28.670 ,4,0,28.,0.8,0.,0.8,2.,0.8,0.,0.8
1979-07-12 18:02:29.470 ,4,0,24.,0.8,2.,0.8,0.,0.8,0.,0.8
1979-07-12 18:02:30.270 ,4,0,16.,0.8,2.,0.8,2.,0.8,0.,0.8
1979-07-12 18:02:31.070 ,4,0,18.,0.8,3.,0.8,1.,0.8,0.,0.8
1979-07-12 18:02:31.870 ,4,0,26.,0.8,0.,0.8,4.,0.8,0.,0.8
1979-07-12 18:02:32.670 ,4,0,19.,0.8,1.,0.8,0.,0.8,0.,0.8
1979-07-12 18:02:33.470 ,4,0,10.,0.8,3.,0.8,1.,0.8,0.,0.8
1979-07-12 18:02:34.270 ,4,0,24.,0.8,2.,0.8,3.,0.8,0.,0.8
1979-07-12 18:02:35.070 ,4,0,31.,0.8,4.,0.8,1.,0.8,0.,0.8
1979-07-12 18:02:35.870 ,4,0,42.,0.8,2.,0.8,2.,0.8,0.,0.8
1979-07-12 18:02:36.670 ,4,0,31.,0.8,0.,0.8,4.,0.8,0.,0.8
1979-07-12 18:02:37.470 ,4,0,34.,0.8,2.,0.8,1.,0.8,0.,0.8
1979-07-12 18:02:38.270 ,4,0,51.,0.8,2.,0.8,1.,0.8,0.,0.8
1979-07-12 18:02:39.070 ,4,0,42.,0.8,6.,0.8,2.,0.8,0.,0.8
1979-07-12 18:02:39.870 ,4,0,41.,0.8,1.,0.8,7.,0.8,0.,0.8
1979-07-12 18:02:40.670 ,4,0,52.,0.8,0.,0.8,3.,0.8,0.,0.8
1979-07-12 18:02:41.470 ,4,0,46.,0.8,2.,0.8,5.,0.8,0.,0.8
1979-07-12 18:02:42.270 ,4,0,36.,0.8,3.,0.8,1.,0.8,0.,0.8
1979-07-12 18:02:43.070 ,4,0,40.,0.8,0.,0.8,3.,0.8,0.,0.8
1979-07-12 18:02:43.870 ,4,0,52.,0.8,0.,0.8,7.,0.8,0.,0.8
1979-07-12 18:02:44.670 ,4,0,46.,0.8,3.,0.8,4.,0.8,0.,0.8
1979-07-12 18:02:45.470 ,4,0,48.,0.8,1.,0.8,5.,0.8,0.,0.8
1979-07-12 18:02:46.270 ,4,0,50.,0.8,5.,0.8,1.,0.8,0.,0.8
1979-07-12 18:02:47.070 ,7,0,40.,0.8,2.,0.8,1.,0.8,0.,0.8
1979-07-12 18:02:47.870 ,7,0,56.,0.8,3.,0.8,3.,0.8,0.,0.8
1979-07-12 18:02:48.670 ,7,0,57.,0.8,2.,0.8,4.,0.8,0.,0.8
1979-07-12 18:02:49.470 ,7,0,53.,0.8,3.,0.8,9.,0.8,0.,0.8
1979-07-12 18:02:50.270 ,7,0,43.,0.8,1.,0.8,4.,0.8,0.,0.8
1979-07-12 18:02:51.070 ,7,0,55.,0.8,6.,0.8,0.,0.8,0.,0.8
1979-07-12 18:02:51.870 ,7,0,50.,0.8,1.,0.8,1.,0.8,0.,0.8
1979-07-12 18:02:52.670 ,7,0,,0,,0,,0,,0
1979-07-12 18:02:53.470 ,7,0,38.,0.8,5.,0.8,1.,0.8,0.,0.8
1979-07-12 18:02:54.270 ,7,0,44.,0.8,2.,0.8,2.,0.8,0.,0.8
1979-07-12 18:02:55.070 ,7,0,39.,0.8,3.,0.8,3.,0.8,0.,0.8
1979-07-12 18:02:55.870 ,7,0,37.,0.8,1.,0.8,3.,0.8,0.,0.8
1979-07-12 18:02:56.670 ,7,0,38.,0.8,1.,0.8,3.,0.8,0.,0.8
1979-07-12 18:02:57.470 ,7,0,41.,0.8,4.,0.8,4.,0.8,0.,0.8
1979-07-12 18:02:58.270 ,7,0,31.,0.8,5.,0.8,2.,0.8,0.,0.8
1979-07-12 18:02:59.070 ,7,0,32.,0.8,4.,0.8,3.,0.8,0.,0.8
1979-07-12 18:02:59.870 ,7,0,4.,0.8,0.,0.8,0.,0.8,0.,0.8
1979-07-12 18:03:00.670 ,7,0,0.,0.8,0.,0.8,0.,0.8,0.,0.8
1979-07-12 18:03:01.470 ,7,0,0.,0.8,0.,0.8,0.,0.8,0.,0.8
1979-07-12 18:03:02.270 ,7,0,0.,0.8,0.,0.8,0.,0.8,0.,0.8
1979-07-12 18:03:03.070 ,7,0,0.,0.8,0.,0.8,0.,0.8,0.,0.8
1979-07-12 18:03:03.870 ,7,0,0.,0.8,0.,0.8,0.,0.8,0.,0.8
1979-07-12 18:03:04.670 ,7,0,0.,0.8,0.,0.8,0.,0.8,0.,0.8
1979-07-12 18:03:05.470 ,7,0,0.,0.8,0.,0.8,0.,0.8,0.,0.8
1979-07-12 18:03:06.270 ,7,0,0.,0.8,0.,0.8,0.,0.8,0.,0.8
1979-07-12 18:03:07.070 ,7,0,0.,0.8,0.,0.8,0.,0.8,0.,0.8
1979-07-12 18:03:07.870 ,7,0,0.,0.8,0.,0.8,0.,0.8,0.,0.8
1979-07-12 18:03:08.670 ,7,0,0.,0.8,0.,0.8,0.,0.8,0.,0.8
1979-07-12 18:03:09.470 ,7,0,0.,0.8,0.,0.8,0.,0.8,0.,0.8
1979-07-12 18:03:10.270 ,7,0,0.,0.8,0.,0.8,0.,0.8,0.,0.8
1979-07-12 18:03:11.070 ,3,0,1.,0.8,0.,0.8,0.,0.8,0.,0.8
1979-07-12 18:03:11.870 ,3,0,43.,0.8,2.,0.8,1.,0.8,0.,0.8
1979-07-12 18:03:12.670 ,3,0,45.,0.8,2.,0.8,2.,0.8,0.,0.8
1979-07-12 18:03:13.470 ,3,0,45.,0.8,3.,0.8,1.,0.8,0.,0.8
1979-07-12 18:03:14.270 ,3,0,30.,0.8,2.,0.8,1.,0.8,0.,0.8
1979-07-12 18:03:15.070 ,3,0,28.,0.8,0.,0.8,1.,0.8,0.,0.8
1979-07-12 18:03:15.870 ,3,0,44.,0.8,1.,0.8,7.,0.8,0.,0.8
1979-07-12 18:03:16.670 ,3,0,39.,0.8,3.,0.8,4.,0.8,0.,0.8
1979-07-12 18:03:17.470 ,3,0,46.,0.8,1.,0.8,3.,0.8,0.,0.8
1979-07-12 18:03:18.270 ,3,0,49.,0.8,3.,0.8,4.,0.8,0.,0.8
1979-07-12 18:03:19.070 ,3,0,49.,0.8,2.,0.8,1.,0.8,0.,0.8
1979-07-12 18:03:19.870 ,3,0,49.,0.8,0.,0.8,2.,0.8,0.,0.8
1979-07-12 18:03:20.670 ,3,0,61.,0.8,2.,0.8,4.,0.8,0.,0.8
1979-07-12 18:03:21.470 ,3,0,41.,0.8,3.,0.8,3.,0.8,0.,0.8
1979-07-12 18:03:22.270 ,3,0,47.,0.8,6.,0.8,2.,0.8,0.,0.8
1979-07-12 18:03:23.070 ,3,0,38.,0.8,2.,0.8,3.,0.8,0.,0.8
1979-07-12 18:03:23.870 ,3,0,58.,0.8,3.,0.8,3.,0.8,0.,0.8
1979-07-12 18:03:24.670 ,3,0,45.,0.8,1.,0.8,1.,0.8,0.,0.8
1979-07-12 18:03:25.470 ,3,0,57.,0.8,4.,0.8,1.,0.8,0.,0.8
1979-07-12 18:03:26.270 ,3,0,47.,0.8,5.,0.8,3.,0.8,0.,0.8
1979-07-12 18:03:27.070 ,3,0,52.,0.8,0.,0.8,4.,0.8,0.,0.8
1979-07-12 18:03:27.870 ,3,0,52.,0.8,2.,0.8,1.,0.8,0.,0.8
1979-07-12 18:03:28.670 ,3,0,63.,0.8,3.,0.8,4.,0.8,0.,0.8
1979-07-12 18:03:29.470 ,3,0,49.,0.8,1.,0.8,5.,0.8,0.,0.8
1979-07-12 18:03:30.270 ,3,0,36.,0.8,2.,0.8,2.,0.8,0.,0.8
1979-07-12 18:03:31.070 ,3,0,44.,0.8,0.,0.8,5.,0.8,0.,0.8
1979-07-12 18:03:31.870 ,3,0,40.,0.8,3.,0.8,3.,0.8,0.,0.8
1979-07-12 18:03:32.670 ,3,0,39.,0.8,0.,0.8,3.,0.8,0.,0.8
1979-07-12 18:03:33.470 ,3,0,38.,0.8,3.,0.8,6.,0.8,0.,0.8
1979-07-12 18:03:34.270 ,3,0,44.,0.8,1.,0.8,4.,0.8,0.,0.8
1979-07-12 18:03:35.070 ,0,0,39.,0.8,2.,0.8,4.,0.8,0.,0.8
1979-07-12 18:03:35.870 ,0,0,40.,0.8,1.,0.8,4.,0.8,0.,0.8
1979-07-12 18:03:36.670 ,0,0,25.,0.8,1.,0.8,3.,0.8,0.,0.8
1979-07-12 18:03:37.470 ,0,0,23.,0.8,2.,0.8,3.,0.8,0.,0.8
1979-07-12 18:03:38.270 ,0,0,33.,0.8,1.,0.8,2.,0.8,0.,0.8
1979-07-12 18:03:39.070 ,0,0,32.,0.8,3.,0.8,2.,0.8,0.,0.8
1979-07-12 18:03:39.870 ,0,0,42.,0.8,6.,0.8,0.,0.8,0.,0.8
1979-07-12 18:03:40.670 ,0,0,29.,0.8,0.,0.8,1.,0.8,0.,0.8
1979-07-12 18:03:41.470 ,0,0,27.,0.8,2.,0.8,3.,0.8,0.,0.8
1979-07-12 18:03:42.270 ,0,0,20.,0.8,3.,0.8,3.,0.8,0.,0.8
1979-07-12 18:03:43.070 ,0,0,31.,0.8,0.,0.8,2.,0.8,0.,0.8
1979-07-12 18:03:43.870 ,0,0,34.,0.8,6.,0.8,2.,0.8,0.,0.8
1979-07-12 18:03:44.670 ,0,0,26.,0.8,2.,0.8,3.,0.8,0.,0.8
1979-07-12 18:03:45.470 ,0,0,30.,0.8,1.,0.8,1.,0.8,0.,0.8
1979-07-12 18:03:46.270 ,0,0,28.,0.8,3.,0.8,2.,0.8,0.,0.8
1979-07-12 18:03:47.070 ,0,0,18.,0.8,0.,0.8,2.,0.8,0.,0.8
1979-07-12 18:03:47.870 ,0,0,23.,0.8,1.,0.8,2.,0.8,0.,0.8
1979-07-12 18:03:48.670 ,0,0,15.,0.8,1.,0.8,0.,0.8,0.,0.8
1979-07-12 18:03:49.470 ,0,0,24.,0.8,2.,0.8,2.,0.8,0.,0.8
1979-07-12 18:03:50.270 ,0,0,22.,0.8,0.,0.8,3.,0.8,0.,0.8
1979-07-12 18:03:51.070 ,0,0,23.,0.8,0.,0.8,1.,0.8,0.,0.8
1979-07-12 18:03:51.870 ,0,0,28.,0.8,0.,0.8,1.,0.8,0.,0.8
1979-07-12 18:03:52.670 ,0,0,17.,0.8,4.,0.8,2.,0.8,0.,0.8
1979-07-12 18:03:53.470 ,0,0,27.,0.8,0.,0.8,1.,0.8,0.,0.8
1979-07-12 18:03:54.270 ,0,0,23.,0.8,0.,0.8,4.,0.8,0.,0.8
1979-07-12 18:03:55.070 ,0,0,19.,0.8,1.,0.8,0.,0.8,0.,0.8
1979-07-12 18:03:55.870 ,0,0,24.,0.8,0.,0.8,3.,0.8,0.,0.8
1979-07-12 18:03:56.670 ,0,0,25.,0.8,0.,0.8,0.,0.8,0.,0.8
1979-07-12 18:03:57.470 ,0,0,24.,0.8,1.,0.8,0.,0.8,0.,0.8
1979-07-12 18:03:58.270 ,0,0,30.,0.8,2.,0.8,0.,0.8,0.,0.8
1979-07-12 18:03:59.070 ,4,0,24.,0.8,0.,0.8,2.,0.8,0.,0.8
1979-07-12 18:03:59.870 ,4,0,23.,0.8,0.,0.8,2.,0.8,0.,0.8
1979-07-12 18:04:00.670 ,4,0,32.,0.8,1.,0.8,0.,0.8,0.,0.8
1979-07-12 18:04:01.470 ,4,0,31.,0.8,1.,0.8,2.,0.8,0.,0.8
1979-07-12 18:04:02.270 ,4,0,25.,0.8,1.,0.8,3.,0.8,0.,0.8
1979-07-12 18:04:03.070 ,4,0,27.,0.8,0.,0.8,1.,0.8,0.,0.8
1979-07-12 18:04:03.870 ,4,0,28.,0.8,3.,0.8,4.,0.8,0.,0.8
1979-07-12 18:04:04.670 ,4,0,32.,0.8,3.,0.8,1.,0.8,0.,0.8
1979-07-12 18:04:05.470 ,4,0,34.,0.8,2.,0.8,1.,0.8,0.,0.8
1979-07-12 18:04:06.270 ,4,0,22.,0.8,2.,0.8,6.,0.8,0.,0.8
1979-07-12 18:04:07.070 ,4,0,28.,0.8,1.,0.8,2.,0.8,0.,0.8
1979-07-12 18:04:07.870 ,4,0,40.,0.8,1.,0.8,2.,0.8,0.,0.8
1979-07-12 18:04:08.670 ,4,0,38.,0.8,0.,0.8,5.,0.8,0.,0.8
1979-07-12 18:04:09.470 ,4,0,30.,0.8,3.,0.8,3.,0.8,0.,0.8
1979-07-12 18:04:10.270 ,4,0,32.,0.8,1.,0.8,2.,0.8,0.,0.8
1979-07-12 18:04:11.070 ,4,0,38.,0.8,2.,0.8,3.,0.8,0.,0.8
1979-07-12 18:04:11.870 ,4,0,46.,0.8,3.,0.8,6.,0.8,0.,0.8
1979-07-12 18:04:12.670 ,4,0,35.,0.8,0.,0.8,1.,0.8,0.,0.8
1979-07-12 18:04:13.470 ,4,0,41.,0.8,2.,0.8,2.,0.8,0.,0.8
1979-07-12 18:04:14.270 ,4,0,37.,0.8,3.,0.8,2.,0.8,0.,0.8
1979-07-12 18:04:15.070 ,4,0,37.,0.8,1.,0.8,2.,0.8,0.,0.8
1979-07-12 18:04:15.870 ,4,0,39.,0.8,4.,0.8,3.,0.8,0.,0.8
1979-07-12 18:04:16.670 ,4,0,37.,0.8,1.,0.8,1.,0.8,0.,0.8
1979-07-12 18:04:17.470 ,4,0,45.,0.8,2.,0.8,2.,0.8,0.,0.8
1979-07-12 18:04:18.270 ,4,0,40.,0.8,1.,0.8,2.,0.8,0.,0.8
1979-07-12 18:04:19.070 ,4,0,51.,0.8,3.,0.8,1.,0.8,0.,0.8
1979-07-12 18:04:19.870 ,4,0,54.,0.8,3.,0.8,3.,0.8,0.,0.8
1979-07-12 18:04:20.670 ,4,0,54.,0.8,1.,0.8,3.,0.8,0.,0.8
1979-07-12 18:04:21.470 ,4,0,48.,0.8,3.,0.8,5.,0.8,0.,0.8
1979-07-12 18:04:22.270 ,4,0,40.,0.8,2.,0.8,4.,0.8,0.,0.8
1979-07-12 18:04:23.070 ,7,0,49.,0.8,1.,0.8,3.,0.8,0.,0.8
1979-07-12 18:04:23.870 ,7,0,50.,0.8,3.,0.8,3.,0.8,0.,0.8
1979-07-12 18:04:24.670 ,7,0,43.,0.8,7.,0.8,4.,0.8,0.,0.8
1979-07-12 18:04:25.470 ,7,0,49.,0.8,3.,0.8,1.,0.8,0.,0.8
1979-07-12 18:04:26.270 ,7,0,51.,0.8,2.,0.8,2.,0.8,0.,0.8
1979-07-12 18:04:27.070 ,7,0,51.,0.8,2.,0.8,3.,0.8,0.,0.8
1979-07-12 18:04:27.870 ,7,0,56.,0.8,2.,0.8,4.,0.8,0.,0.8
1979-07-12 18:04:28.670 ,7,0,39.,0.8,4.,0.8,3.,0.8,0.,0.8
1979-07-12 18:04:29.470 ,7,0,47.,0.8,1.,0.8,2.,0.8,0.,0.8
1979-07-12 18:04:30.270 ,7,0,31.,0.8,0.,0.8,1.,0.8,0.,0.8
1979-07-12 18:04:31.070 ,7,0,33.,0.8,3.,0.8,2.,0.8,0.,0.8
1979-07-12 18:04:31.870 ,7,0,37.,0.8,1.,0.8,1.,0.8,0.,0.8
1979-07-12 18:04:32.670 ,7,0,48.,0.8,4.,0.8,2.,0.8,0.,0.8
1979-07-12 18:04:33.470 ,7,0,50.,0.8,3.,0.8,4.,0.8,0.,0.8
1979-07-12 18:04:34.270 ,7,0,44.,0.8,2.,0.8,3.,0.8,0.,0.8
1979-07-12 18:04:35.070 ,7,0,44.,0.8,2.,0.8,4.,0.8,0.,0.8
1979-07-12 18:04:35.870 ,7,0,1.,0.8,0.,0.8,0.,0.8,0.,0.8
1979-07-12 18:04:36.670 ,7,0,0.,0.8,0.,0.8,0.,0.8,0.,0.8
1979-07-12 18:04:37.470 ,7,0,0.,0.8,0.,0.8,0.,0.8,0.,0.8
1979-07-12 18:04:38.270 ,7,0,0.,0.8,0.,0.8,0.,0.8,0.,0.8
1979-07-12 18:04:39.070 ,7,0,0.,0.8,0.,0.8,0.,0.8,0.,0.8
1979-07-12 18:04:39.870 ,7,0,0.,0.8,0.,0.8,0.,0.8,0.,0.8
1979-07-12 18:04:40.670 ,7,0,0.,0.8,0.,0.8,0.,0.8,0.,0.8
1979-07-12 18:04:41.470 ,7,0,0.,0.8,0.,0.8,0.,0.8,0.,0.8
1979-07-12 18:04:42.270 ,7,0,0.,0.8,0.,0.8,0.,0.8,0.,0.8
1979-07-12 18:04:43.070 ,7,0,0.,0.8,0.,0.8,0.,0.8,0.,0.8
1979-07-12 18:04:43.870 ,7,0,0.,0.8,0.,0.8,0.,0.8,0.,0.8
1979-07-12 18:04:44.670 ,7,0,0.,0.8,0.,0.8,0.,0.8,0.,0.8
1979-07-12 18:04:45.470 ,7,0,0.,0.8,0.,0.8,0.,0.8,0.,0.8
1979-07-12 18:04:46.270 ,7,0,0.,0.8,0.,0.8,0.,0.8,0.,0.8
1979-07-12 18:04:47.070 ,3,0,0.,0.8,0.,0.8,0.,0.8,0.,0.8
1979-07-12 18:04:47.870 ,3,0,32.,0.8,3.,0.8,5.,0.8,0.,0.8
1979-07-12 18:04:48.670 ,3,0,39.,0.8,5.,0.8,3.,0.8,0.,0.8
1979-07-12 18:04:49.470 ,3,0,36.,0.8,1.,0.8,0.,0.8,0.,0.8
1979-07-12 18:04:50.270 ,3,0,39.,0.8,5.,0.8,6.,0.8,0.,0.8
1979-07-12 18:04:51.070 ,3,0,31.,0.8,2.,0.8,3.,0.8,0.,0.8
1979-07-12 18:04:51.870 ,3,0,37.,0.8,3.,0.8,2.,0.8,0.,0.8
1979-07-12 18:04:52.670 ,3,0,36.,0.8,4.,0.8,1.,0.8,0.,0.8
1979-07-12 18:04:53.470 ,3,0,32.,0.8,2.,0.8,3.,0.8,0.,0.8
1979-07-12 18:04:54.270 ,3,0,53.,0.8,4.,0.8,3.,0.8,0.,0.8
1979-07-12 18:04:55.070 ,3,0,52.,0.8,1.,0.8,3.,0.8,0.,0.8
1979-07-12 18:04:55.870 ,3,0,53.,0.8,3.,0.8,5.,0.8,0.,0.8
1979-07-12 18:04:56.670 ,3,0,48.,0.8,3.,0.8,3.,0.8,0.,0.8
1979-07-12 18:04:57.470 ,3,0,58.,0.8,1.,0.8,3.,0.8,0.,0.8
1979-07-12 18:04:58.270 ,3,0,50.,0.8,3.,0.8,1.,0.8,0.,0.8
1979-07-12 18:04:59.070 ,3,0,62.,0.8,2.,0.8,1.,0.8,0.,0.8
1979-07-12 18:04:59.870 ,3,0,59.,0.8,1.,0.8,3.,0.8,0.,0.8
1979-07-12 18:05:00.670 ,3,0,52.,0.8,2.,0.8,3.,0.8,0.,0.8
1979-07-12 18:05:01.470 ,3,0,48.,0.8,1.,0.8,3.,0.8,0.,0.8
1979-07-12 18:05:02.270 ,3,0,43.,0.8,1.,0.8,3.,0.8,0.,0.8
1979-07-12 18:05:03.070 ,3,0,46.,0.8,1.,0.8,7.,0.8,0.,0.8
1979-07-12 18:05:03.870 ,3,0,66.,0.8,6.,0.8,6.,0.8,0.,0.8
1979-07-12 18:05:04.670 ,3,0,48.,0.8,3.,0.8,2.,0.8,0.,0.8
1979-07-12 18:05:05.470 ,3,0,38.,0.8,2.,0.8,4.,0.8,0.,0.8
1979-07-12 18:05:06.270 ,3,0,46.,0.8,4.,0.8,3.,0.8,0.,0.8
1979-07-12 18:05:07.070 ,3,0,47.,0.8,3.,0.8,3.,0.8,0.,0.8
1979-07-12 18:05:07.870 ,3,0,38.,0.8,1.,0.8,1.,0.8,0.,0.8
1979-07-12 18:05:08.670 ,3,0,34.,0.8,3.,0.8,1.,0.8,0.,0.8
1979-07-12 18:05:09.470 ,3,0,41.,0.8,0.,0.8,5.,0.8,0.,0.8
1979-07-12 18:05:10.270 ,3,0,27.,0.8,3.,0.8,3.,0.8,0.,0.8
1979-07-12 18:05:11.070 ,0,0,51.,0.8,0.,0.8,0.,0.8,0.,0.8
1979-07-12 18:05:11.870 ,0,0,33.,0.8,3.,0.8,2.,0.8,0.,0.8
1979-07-12 18:05:12.670 ,0,0,32.,0.8,3.,0.8,1.,0.8,0.,0.8
1979-07-12 18:05:13.470 ,0,0,16.,0.8,2.,0.8,4.,0.8,0.,0.8
1979-07-12 18:05:14.270 ,0,0,27.,0.8,3.,0.8,2.,0.8,0.,0.8
1979-07-12 18:05:15.070 ,0,0,33.,0.8,3.,0.8,1.,0.8,0.,0.8
1979-07-12 18:05:15.870 ,0,0,39.,0.8,3.,0.8,1.,0.8,0.,0.8
1979-07-12 18:05:16.670 ,0,0,41.,0.8,3.,0.8,1.,0.8,0.,0.8
1979-07-12 18:05:17.470 ,0,0,34.,0.8,2.,0.8,2.,0.8,0.,0.8
1979-07-12 18:05:18.270 ,0,0,25.,0.8,4.,0.8,0.,0.8,0.,0.8
1979-07-12 18:05:19.070 ,0,0,21.,0.8,0.,0.8,3.,0.8,0.,0.8
1979-07-12 18:05:19.870 ,0,0,37.,0.8,1.,0.8,0.,0.8,0.,0.8
1979-07-12 18:05:20.670 ,0,0,16.,0.8,3.,0.8,3.,0.8,0.,0.8
1979-07-12 18:05:21.470 ,0,0,36.,0.8,2.,0.8,3.,0.8,0.,0.8
1979-07-12 18:05:22.270 ,0,0,18.,0.8,2.,0.8,0.,0.8,0.,0.8
1979-07-12 18:05:23.070 ,0,0,25.,0.8,3.,0.8,0.,0.8,0.,0.8
1979-07-12 18:05:23.870 ,0,0,24.,0.8,1.,0.8,0.,0.8,0.,0.8
1979-07-12 18:05:24.670 ,0,0,23.,0.8,0.,0.8,4.,0.8,0.,0.8
1979-07-12 18:05:25.470 ,0,0,18.,0.8,3.,0.8,3.,0.8,0.,0.8
1979-07-12 18:05:26.270 ,0,0,18.,0.8,1.,0.8,0.,0.8,0.,0.8
1979-07-12 18:05:27.070 ,0,0,16.,0.8,1.,0.8,4.,0.8,0.,0.8
1979-07-12 18:05:27.870 ,0,0,32.,0.8,3.,0.8,2.,0.8,0.,0.8
1979-07-12 18:05:28.670 ,0,0,23.,0.8,2.,0.8,2.,0.8,0.,0.8
1979-07-12 18:05:29.470 ,0,0,24.,0.8,1.,0.8,4.,0.8,0.,0.8
1979-07-12 18:05:30.270 ,0,0,27.,0.8,0.,0.8,2.,0.8,0.,0.8
1979-07-12 18:05:31.070 ,0,0,24.,0.8,0.,0.8,2.,0.8,0.,0.8
1979-07-12 18:05:31.870 ,0,0,18.,0.8,2.,0.8,0.,0.8,0.,0.8
1979-07-12 18:05:32.670 ,0,0,19.,0.8,2.,0.8,0.,0.8,0.,0.8
1979-07-12 18:05:33.470 ,0,0,28.,0.8,1.,0.8,1.,0.8,0.,0.8
1979-07-12 18:05:34.270 ,0,0,18.,0.8,1.,0.8,1.,0.8,0.,0.8
1979-07-12 18:05:35.070 ,0,0,21.,0.8,1.,0.8,2.,0.8,0.,0.8
1979-07-12 18:05:35.870 ,0,0,32.,0.8,1.,0.8,2.,0.8,0.,0.8
1979-07-12 18:05:36.670 ,0,0,22.,0.8,1.,0.8,0.,0.8,0.,0.8
1979-07-12 18:05:37.470 ,0,0,19.,0.8,0.,0.8,5.,0.8,0.,0.8
1979-07-12 18:05:38.270 ,0,0,25.,0.8,0.,0.8,2.,0.8,0.,0.8
1979-07-12 18:05:39.070 ,0,0,25.,0.8,0.,0.8,2.,0.8,0.,0.8
1979-07-12 18:05:39.870 ,0,0,33.,0.8,2.,0.8,3.,0.8,0.,0.8
1979-07-12 18:05:40.670 ,0,0,25.,0.8,1.,0.8,1.,0.8,0.,0.8
1979-07-12 18:05:41.470 ,0,0,34.,0.8,3.,0.8,1.,0.8,0.,0.8
1979-07-12 18:05:42.270 ,0,0,31.,0.8,1.,0.8,2.,0.8,0.,0.8
1979-07-12 18:05:43.070 ,0,0,27.,0.8,3.,0.8,2.,0.8,0.,0.8
1979-07-12 18:05:43.870 ,0,0,35.,0.8,1.,0.8,3.,0.8,0.,0.8
1979-07-12 18:05:44.670 ,0,0,30.,0.8,3.,0.8,1.,0.8,0.,0.8
1979-07-12 18:05:45.470 ,0,0,39.,0.8,4.,0.8,3.,0.8,0.,0.8
1979-07-12 18:05:46.270 ,0,0,31.,0.8,0.,0.8,3.,0.8,0.,0.8
1979-07-12 18:05:47.070 ,0,0,40.,0.8,1.,0.8,5.,0.8,0.,0.8